Weather History for Saginaw Browne, MI

Change the Weather History Date:

Thursday, March 28, 2013

  Actual Average (KMBS) Record (KMBS)
Temperature  
Mean Temperature 42 °F 38 °F  
Max Temperature 53 °F 48 °F 70 °F (2003)
Min Temperature 32 °F 29 °F 15 °F (2011)
Degree Days  
Heating Degree Days 22    
Month to date heating degree days  
Since 1 July heating degree days  
Cooling Degree Days 0    
Month to date cooling degree days  
Year to date cooling degree days  
Moisture  
Dew Point 27 °F    
Average Humidity 61    
Maximum Humidity 81    
Minimum Humidity 33    
Precipitation  
Precipitation 0.00 in 0.07 in 0.98 in (2003)
Month to date precipitation 1.84  
Year to date precipitation 5.16  
Snow  
Snow 0.00 in - - ()
Month to date snowfall  
Since 1 July snowfall  
Snow Depth -    
Sea Level Pressure  
Sea Level Pressure 30.21 in    
Wind  
Wind Speed 9 mph (WNW)    
Max Wind Speed 15 mph    
Max Gust Speed 20 mph    
Visibility 10 miles    
Events      
T = Trace of Precipitation, MM = Missing Value Source: NWS Daily Summary

Daily Weather History Graph

Daily Weather History Graph

Search for Another Location

Airport:

Trip Planner

Search our weather history database for the weather conditions in past years. The results will help you decide how hot, cold, wet, or windy it might be!

Date:

Astronomy

Mar. 28, 2013 Rise Set
Actual Time 7:23 AM EDT 7:57 PM EDT
Civil Twilight 6:55 AM EDT 8:26 PM EDT
Nautical Twilight 6:21 AM EDT 9:00 PM EDT
Astronomical Twilight 5:46 AM EDT 9:35 PM EDT
Moon 9:52 PM EDT (3/28) 7:47 AM EDT (3/28)
Length of Visible Light 13h 31m
Length of Day
12h 33m
Full, 98% of the Moon is Illuminated
Mar 28
Full
Apr 3
Last Quarter
Apr 10
New
Apr 18
First Quarter
Apr 25
Full

Hourly Weather History & Observations

Time (EDT) Temp. Windchill Dew Point Humidity Pressure Visibility Wind Dir Wind Speed Gust Speed Precip Events Conditions
12:12 AM 35.6 °F 30.7 °F 28.4 °F 75% 30.19 in 10.0 mi WNW 5.8 mph - N/A   Overcast
12:32 AM 35.6 °F 29.2 °F 28.4 °F 75% 30.19 in 10.0 mi WNW 8.1 mph - N/A   Overcast
12:52 AM 35.6 °F 29.2 °F 28.4 °F 75% 30.19 in 10.0 mi West 8.1 mph - N/A   Overcast
1:13 AM 35.6 °F 29.2 °F 28.4 °F 75% 30.19 in 10.0 mi West 8.1 mph - N/A   Overcast
1:33 AM 35.6 °F 28.0 °F 26.6 °F 70% 30.19 in 10.0 mi West 10.4 mph - N/A   Overcast
1:55 AM 33.8 °F 25.8 °F 26.6 °F 75% 30.19 in 10.0 mi West 10.4 mph - N/A   Overcast
2:15 AM 33.8 °F 25.8 °F 26.6 °F 75% 30.19 in 10.0 mi West 10.4 mph - N/A   Scattered Clouds
2:35 AM 33.8 °F 26.4 °F 26.6 °F 75% 30.19 in 10.0 mi West 9.2 mph - N/A   Scattered Clouds
2:55 AM 33.8 °F 26.4 °F 26.6 °F 75% 30.19 in 10.0 mi West 9.2 mph - N/A   Overcast
3:10 AM 33.8 °F 25.8 °F 26.6 °F 75% 30.19 in 10.0 mi WNW 10.4 mph - N/A   Overcast
3:31 AM 33.8 °F 27.0 °F 26.6 °F 75% 30.18 in 10.0 mi WNW 8.1 mph - N/A   Overcast
3:51 AM 33.8 °F 25.3 °F 26.6 °F 75% 30.18 in 10.0 mi WNW 11.5 mph - N/A   Overcast
4:12 AM 33.8 °F 25.3 °F 28.4 °F 81% 30.18 in 10.0 mi WNW 11.5 mph - N/A   Overcast
4:32 AM 33.8 °F 26.4 °F 28.4 °F 81% 30.18 in 10.0 mi WNW 9.2 mph - N/A   Overcast
4:52 AM 33.8 °F 25.8 °F 28.4 °F 81% 30.18 in 10.0 mi WNW 10.4 mph - N/A   Overcast
5:12 AM 33.8 °F 25.8 °F 28.4 °F 81% 30.19 in 10.0 mi NW 10.4 mph - N/A   Overcast
5:32 AM 33.8 °F 25.8 °F 28.4 °F 81% 30.19 in 10.0 mi WNW 10.4 mph - N/A   Overcast
5:52 AM 33.8 °F 25.8 °F 28.4 °F 81% 30.19 in 10.0 mi WNW 10.4 mph - N/A   Overcast
6:12 AM 33.8 °F 26.4 °F 28.4 °F 81% 30.19 in 10.0 mi NW 9.2 mph - N/A   Overcast
6:33 AM 33.8 °F 27.0 °F 28.4 °F 81% 30.20 in 10.0 mi WNW 8.1 mph - N/A   Overcast
6:53 AM 33.8 °F 27.0 °F 28.4 °F 81% 30.21 in 10.0 mi WNW 8.1 mph - N/A   Overcast
7:13 AM 32.0 °F 24.2 °F 26.6 °F 80% 30.21 in 10.0 mi WNW 9.2 mph - N/A   Overcast
7:33 AM 32.0 °F 24.2 °F 26.6 °F 80% 30.22 in 10.0 mi WNW 9.2 mph - N/A   Overcast
7:53 AM 33.8 °F 25.8 °F 26.6 °F 75% 30.22 in 10.0 mi WNW 10.4 mph - N/A   Overcast
8:13 AM 33.8 °F 26.4 °F 26.6 °F 75% 30.23 in 10.0 mi WNW 9.2 mph - N/A   Overcast
8:33 AM 33.8 °F 25.8 °F 26.6 °F 75% 30.23 in 10.0 mi WNW 10.4 mph 16.1 mph N/A   Overcast
8:53 AM 33.8 °F 25.8 °F 26.6 °F 75% 30.23 in 10.0 mi NW 10.4 mph - N/A   Overcast
9:13 AM 33.8 °F 27.0 °F 26.6 °F 75% 30.23 in 10.0 mi NW 8.1 mph - N/A   Overcast
9:34 AM 35.6 °F 28.0 °F 26.6 °F 70% 30.24 in 10.0 mi NW 10.4 mph - N/A   Mostly Cloudy
9:54 AM 35.6 °F 28.0 °F 26.6 °F 70% 30.24 in 10.0 mi NW 10.4 mph - N/A   Overcast
10:14 AM 35.6 °F 29.9 °F 26.6 °F 70% 30.25 in 10.0 mi NW 6.9 mph - N/A   Overcast
10:34 AM 37.4 °F 32.1 °F 28.4 °F 70% 30.25 in 10.0 mi WNW 6.9 mph - N/A   Scattered Clouds
10:54 AM 37.4 °F 32.1 °F 28.4 °F 70% 30.25 in 10.0 mi WNW 6.9 mph - N/A   Clear
11:14 AM 39.2 °F 35.0 °F 28.4 °F 65% 30.25 in 10.0 mi NW 5.8 mph - N/A   Clear
11:34 AM 41.0 °F 38.0 °F 28.4 °F 61% 30.25 in 10.0 mi NW 4.6 mph - N/A   Scattered Clouds
11:54 AM 42.8 °F 39.3 °F 28.4 °F 57% 30.25 in 10.0 mi NW 5.8 mph - N/A   Mostly Cloudy
12:14 PM 42.8 °F 38.0 °F 28.4 °F 57% 30.25 in 10.0 mi West 8.1 mph - N/A   Scattered Clouds
12:34 PM 44.6 °F 39.7 °F 26.6 °F 49% 30.25 in 10.0 mi NNW 9.2 mph - N/A   Clear
12:54 PM 46.4 °F 42.4 °F 26.6 °F 46% 30.24 in 10.0 mi NW 8.1 mph - N/A   Clear
1:14 PM 46.4 °F 41.5 °F 24.8 °F 43% 30.24 in 10.0 mi WNW 10.4 mph 19.6 mph N/A   Clear
1:34 PM 48.2 °F - 24.8 °F 40% 30.23 in 10.0 mi NW 10.4 mph 17.3 mph N/A   Clear
1:55 PM 50.0 °F - 23.0 °F 35% 30.23 in 10.0 mi NW 11.5 mph 18.4 mph N/A   Clear
2:15 PM 50.0 °F - 23.0 °F 35% 30.23 in 10.0 mi NW 13.8 mph 19.6 mph N/A   Clear
2:35 PM 50.0 °F - 23.0 °F 35% 30.22 in 10.0 mi NW 4.6 mph 16.1 mph N/A   Clear
2:55 PM 51.8 °F - 23.0 °F 33% 30.22 in 10.0 mi NNW 11.5 mph 18.4 mph N/A   Clear
3:15 PM 51.8 °F - 23.0 °F 33% 30.21 in 10.0 mi NW 10.4 mph 16.1 mph N/A   Clear
3:35 PM 51.8 °F - 23.0 °F 33% 30.21 in 10.0 mi NW 9.2 mph 18.4 mph N/A   Clear
3:55 PM 51.8 °F - 23.0 °F 33% 30.20 in 10.0 mi North 10.4 mph 16.1 mph N/A   Clear
4:15 PM 51.8 °F - 23.0 °F 33% 30.20 in 10.0 mi NW 11.5 mph - N/A   Clear
4:31 PM 51.8 °F - 24.8 °F 35% 30.19 in 10.0 mi NW 8.1 mph - N/A   Clear
4:51 PM 53.6 °F - 26.6 °F 35% 30.19 in 10.0 mi West 15.0 mph - N/A   Clear
5:11 PM 51.8 °F - 24.8 °F 35% 30.19 in 10.0 mi WNW 8.1 mph - N/A   Scattered Clouds
5:31 PM 51.8 °F - 26.6 °F 38% 30.19 in 10.0 mi West 10.4 mph - N/A   Scattered Clouds
5:51 PM 50.0 °F - 26.6 °F 40% 30.19 in 10.0 mi West 4.6 mph - N/A   Scattered Clouds
6:11 PM 51.8 °F - 26.6 °F 38% 30.19 in 10.0 mi West 11.5 mph - N/A   Mostly Cloudy
6:31 PM 48.2 °F - 26.6 °F 43% 30.20 in 10.0 mi West 8.1 mph - N/A   Scattered Clouds
6:51 PM 50.0 °F - 26.6 °F 40% 30.20 in 10.0 mi WNW 12.7 mph - N/A   Scattered Clouds
7:11 PM 50.0 °F - 26.6 °F 40% 30.21 in 10.0 mi West 11.5 mph - N/A   Mostly Cloudy
7:32 PM 48.2 °F - 28.4 °F 46% 30.21 in 10.0 mi West 8.1 mph - N/A   Mostly Cloudy
7:52 PM 46.4 °F 41.9 °F 28.4 °F 50% 30.21 in 10.0 mi West 9.2 mph - N/A   Scattered Clouds
8:12 PM 44.6 °F 41.4 °F 28.4 °F 53% 30.22 in 10.0 mi WSW 5.8 mph - N/A   Mostly Cloudy
8:32 PM 44.6 °F 42.2 °F 28.4 °F 53% 30.22 in 10.0 mi WSW 4.6 mph - N/A   Overcast
8:52 PM 42.8 °F 40.1 °F 28.4 °F 57% 30.23 in 10.0 mi West 4.6 mph - N/A   Overcast
9:12 PM 42.8 °F 41.1 °F 28.4 °F 57% 30.23 in 10.0 mi West 3.5 mph - N/A   Overcast
9:32 PM 41.0 °F 37.1 °F 28.4 °F 61% 30.23 in 10.0 mi West 5.8 mph - N/A   Mostly Cloudy
9:52 PM 41.0 °F 37.1 °F 28.4 °F 61% 30.23 in 10.0 mi West 5.8 mph - N/A   Scattered Clouds
10:12 PM 39.2 °F 33.6 °F 26.6 °F 61% 30.24 in 10.0 mi WNW 8.1 mph - N/A   Clear
10:32 PM 39.2 °F 33.0 °F 26.6 °F 61% 30.24 in 10.0 mi WNW 9.2 mph - N/A   Clear
10:52 PM 37.4 °F 31.4 °F 26.6 °F 65% 30.24 in 10.0 mi WNW 8.1 mph - N/A   Clear
11:12 PM 37.4 °F 31.4 °F 26.6 °F 65% 30.25 in 10.0 mi WNW 8.1 mph - N/A   Clear
11:33 PM 35.6 °F 29.2 °F 26.6 °F 70% 30.25 in 10.0 mi WNW 8.1 mph - N/A   Clear
11:53 PM 35.6 °F 29.9 °F 26.6 °F 70% 30.25 in 10.0 mi WNW 6.9 mph - N/A   Clear